Location: L�beck
(53.8752°N, 10.6787°E)
Time: 08:30:16
(UTC+02:00)

ISS - Pass Details

Date: 04 January 2018
Orbit: 402 x 408 km, 51.6° (Epoch: 22 July)

Event Time Altitude Azimuth Distance (km) Brightness Sun altitude
Exits shadow 05:27:43 27° 113° (ESE) 849 -1.6 -26.1°
Drops below altitude 10° 05:29:37 10° 91° (E) 1,502 0.1 -25.8°
Sets 05:31:48 0° 84° (E) 2,372 1.4 -25.5°
